GFSSW_sfc_dewp_000.txt.gz
Dewpoint
55 56 56 56 56 56 55 55 56 57 57 58 58 58 58 58 57 53 43 41 46 63 59 57 48 46 41 37 41 37 34 33 32 20 18 21 17 24 27 27 31 32 33 33 35
54 54 54 55 55 55 55 54 55 56 57 57 57 57 58 58 51 41 47 60 62 66 40 39 38 37 34 34 36 34 33 32 30 20 19 19 17 21 27 31 30 31 33 35 35
53 53 53 53 54 55 54 54 54 55 56 56 57 57 58 57 42 34 59 58 63 64 41 38 35 34 33 33 32 32 32 32 26 19 19 19 18 23 28 28 28 27 31 34 37
53 53 53 53 53 53 53 53 53 54 54 55 56 56 57 50 18 34 68 67 65 55 38 34 31 29 27 26 30 28 30 29 27 26 19 18 21 27 27 26 31 30 34 35 38
53 53 53 53 53 53 54 53 53 53 53 54 55 56 53 39 34 43 66 66 57 45 38 34 32 29 27 28 29 28 26 25 22 19 19 20 21 25 27 32 34 31 34 37 38
52 52 52 52 52 52 53 53 53 53 53 53 54 56 42 26 29 36 45 54 50 44 39 35 34 31 28 29 27 27 23 22 20 21 22 19 23 26 27 34 32 31 34 37 39
51 51 52 52 51 51 52 52 52 52 52 53 54 53 44 16 25 45 50 46 45 41 37 36 32 30 30 28 29 24 23 21 21 19 19 20 19 23 29 31 30 31 34 37 39
52 52 51 51 50 50 50 52 52 52 53 54 55 53 32 30 30 25 25 34 39 42 36 35 33 32 32 30 26 22 21 18 20 20 20 17 17 21 29 30 31 31 33 36 39
52 52 51 51 50 50 51 51 51 51 57 57 53 47 27 38 38 34 32 30 36 37 36 32 28 27 26 23 21 23 21 20 20 20 21 18 17 25 32 30 31 31 35 37 38
52 51 52 51 50 51 51 51 49 51 56 55 49 32 19 13 29 33 36 34 34 34 32 31 27 24 22 21 20 21 21 21 21 21 20 18 18 21 31 30 32 32 35 37 40
51 51 51 51 50 51 48 41 35 42 47 32 26 24 25 30 31 33 40 37 35 31 27 29 26 24 23 22 24 24 24 23 26 23 20 20 20 21 29 30 30 32 35 37 39
51 52 51 51 50 50 45 32 35 35 33 34 34 34 32 31 28 28 35 32 32 28 29 28 25 27 26 26 24 24 23 23 24 26 21 22 22 25 29 30 30 32 34 37 39
52 52 51 51 51 42 40 37 38 35 33 34 32 31 31 32 29 29 33 33 30 28 27 27 28 28 26 25 24 24 23 23 23 26 23 22 20 22 26 32 34 33 34 38 39
52 52 52 51 39 42 34 41 40 36 31 29 31 30 30 29 29 30 34 33 32 27 29 27 28 27 27 26 25 24 26 26 26 24 19 21 19 21 25 29 35 31 33 36 38
52 52 51 49 42 41 39 42 39 35 11 20 30 30 28 24 25 26 30 31 29 29 28 28 26 27 26 26 26 25 28 25 26 23 20 22 20 21 32 29 30 34 32 35 37
52 52 51 43 42 43 43 41 37 29 23 22 26 27 26 26 24 22 27 31 30 27 28 29 29 27 26 27 27 28 24 25 27 23 18 18 20 19 23 28 30 35 32 35 37
51 52 50 42 37 42 42 37 29 25 22 18 18 25 24 25 22 23 23 24 23 24 24 26 26 27 27 25 24 22 20 19 19 19 20 24 21 22 25 27 31 35 33 34 36
50 51 50 45 44 43 39 33 26 22 21 22 19 22 21 23 22 21 22 22 23 25 25 23 22 25 25 25 23 20 20 18 14 14 13 26 22 23 30 35 38 37 35 35 36
49 48 48 47 45 43 35 28 19 23 21 20 19 19 22 21 22 21 17 18 22 26 21 25 23 27 25 23 24 22 18 19 16 23 20 22 27 34 38 39 39 36 35 35 37
45 44 45 47 46 39 31 20 27 27 21 18 17 18 19 21 19 18 20 18 18 28 27 26 23 25 24 24 24 22 22 16 19 15 16 20 25 29 30 34 40 39 35 35 38
44 40 44 46 43 35 24 17 18 30 26 20 15 18 19 19 20 20 20 19 19 26 26 26 26 26 27 29 24 24 25 27 19 20 17 18 25 33 34 39 42 40 35 35 37
43 34 44 43 35 33 28 22 27 21 30 26 24 18 20 21 20 20 21 19 23 25 25 26 26 24 31 33 34 26 25 28 23 19 25 23 24 35 41 44 44 42 35 36 37
39 39 44 41 30 30 29 26 23 20 28 26 26 25 24 21 20 23 24 21 24 24 25 27 24 21 22 37 37 33 35 32 33 33 31 27 25 37 43 41 43 41 35 35 37
35 32 37 40 32 29 27 26 21 20 22 28 29 28 26 23 24 23 27 27 24 25 44 32 24 22 20 21 36 33 38 36 31 30 29 32 30 34 40 40 42 40 35 35 36
35 33 37 31 34 31 26 22 22 20 21 27 28 28 26 21 22 21 24 23 22 35 34 26 23 25 22 21 32 27 33 36 31 29 28 29 34 33 37 40 41 39 35 34 35
33 34 37 33 34 31 31 27 21 21 19 21 25 29 26 25 25 24 24 22 22 17 26 33 25 25 24 25 25 25 29 36 33 34 35 32 33 39 43 46 44 39 34 34 35
39 41 39 34 34 31 30 29 28 26 27 27 27 26 23 27 26 24 23 24 24 22 17 29 34 31 25 33 31 28 26 34 35 36 34 31 33 40 44 45 43 43 35 35 35

GFSSW_sfc_dewp_003.txt.gz
Dewpoint
54 54 55 55 56 56 55 55 55 56 56 57 57 57 58 58 57 53 36 37 44 65 63 56 51 44 42 41 44 40 35 30 31 32 30 21 20 24 27 26 29 31 32 33 36
54 54 54 54 54 55 54 54 54 56 56 56 57 57 58 58 49 35 46 58 63 65 51 46 44 43 39 37 38 36 33 32 34 31 27 21 20 22 26 28 28 29 33 34 34
53 53 53 54 54 54 54 54 54 54 55 55 55 56 57 57 39 24 62 61 64 60 38 39 40 38 34 34 35 34 28 27 28 30 26 23 20 23 25 27 28 28 32 34 36
52 53 53 53 53 53 53 53 53 53 54 53 54 56 57 52 10 26 68 64 66 51 39 36 35 32 29 28 31 29 31 31 28 28 22 21 21 22 26 24 30 31 33 34 37
51 51 52 52 52 52 52 52 52 52 52 53 54 55 52 32 21 31 66 66 58 46 34 34 32 31 28 29 29 30 28 26 26 21 21 22 21 21 26 28 32 32 34 35 39
51 51 51 51 51 51 52 53 52 52 52 52 54 55 45 21 18 33 34 47 43 42 37 34 32 32 31 30 29 29 27 22 19 20 21 20 21 24 25 33 33 33 33 36 38
51 51 51 51 51 51 52 52 52 52 52 52 54 52 42 20 18 45 49 45 48 42 37 35 34 33 34 31 30 25 24 22 20 20 20 22 20 23 27 33 33 32 34 36 40
52 52 51 51 51 51 51 52 51 51 52 54 54 52 30 29 31 27 26 30 32 40 38 37 34 32 31 30 26 23 23 21 22 20 20 20 22 25 27 33 33 33 33 37 40
52 52 51 51 51 50 51 52 51 51 54 55 53 48 29 37 32 28 25 20 24 38 39 34 34 33 26 25 24 25 23 25 24 21 20 20 20 24 29 32 34 34 34 36 39
52 52 51 51 51 51 51 51 49 51 55 54 51 40 30 18 23 33 32 25 32 36 34 32 30 28 26 25 22 22 22 22 22 23 20 20 20 23 27 31 33 34 35 37 39
52 51 51 51 51 51 48 42 38 45 50 32 32 24 20 27 29 28 36 28 36 35 30 31 28 27 28 28 26 25 25 25 25 25 24 24 25 26 29 31 32 34 36 39 41
52 51 52 52 52 51 46 33 35 36 31 33 35 37 34 32 25 25 36 29 33 28 31 28 28 30 29 28 25 24 24 24 26 25 25 26 25 27 29 31 33 35 36 38 41
52 52 51 51 51 43 38 38 40 38 33 31 32 31 31 30 26 26 33 31 29 29 28 28 27 29 27 27 26 26 25 27 25 26 25 25 24 26 27 31 33 35 37 38 40
51 52 52 51 43 42 35 40 41 40 29 26 32 29 28 28 26 25 25 31 30 28 29 28 28 27 27 26 27 27 27 26 27 26 22 24 22 27 26 30 33 34 36 37 40
50 52 52 48 43 40 37 42 40 38 11 18 29 30 28 24 24 28 26 28 29 28 29 27 28 27 27 27 28 26 29 27 27 27 25 23 23 20 29 27 29 35 37 38 40
50 50 51 47 45 41 43 42 39 30 17 20 27 27 27 23 22 26 24 28 31 29 29 28 29 28 26 29 28 28 27 27 28 25 22 22 21 18 22 27 29 33 38 38 39
49 48 49 42 38 41 43 37 31 24 20 17 22 26 24 24 21 23 22 21 24 26 28 28 27 27 29 27 27 28 28 23 24 24 20 25 22 23 27 29 30 31 37 38 39
48 49 48 44 40 43 40 32 24 17 18 19 18 25 22 24 23 19 21 17 22 26 25 25 24 27 27 28 26 27 28 22 21 18 18 25 21 19 31 34 40 39 40 38 39
48 48 46 47 45 42 35 24 17 18 18 16 17 20 22 23 22 21 20 17 22 28 23 25 22 26 26 26 27 24 23 26 24 24 19 20 25 31 35 37 39 39 39 39 40
46 44 42 48 47 39 31 22 19 22 21 17 14 16 21 20 20 20 20 18 18 25 31 29 25 25 25 25 26 27 25 23 22 20 21 18 24 24 27 28 38 41 40 40 41
45 40 43 48 47 37 27 19 16 23 28 21 17 18 18 21 20 20 18 17 20 23 28 29 27 27 26 27 23 23 24 26 24 21 20 22 21 34 34 39 43 43 41 40 40
42 34 46 48 34 35 28 24 28 18 19 25 23 19 22 23 22 22 20 18 19 28 25 29 31 26 25 29 29 26 25 28 22 25 24 24 22 33 40 43 46 45 41 40 40
37 37 46 43 30 33 30 28 26 25 21 23 25 24 24 26 25 25 25 23 21 23 30 33 32 27 24 36 38 27 27 29 32 33 27 21 22 36 42 42 45 44 41 40 40
37 32 35 41 38 35 30 28 28 24 23 23 24 29 25 22 25 26 24 24 23 23 43 37 35 29 23 24 30 32 32 29 30 26 23 24 23 32 39 40 43 45 41 39 40
37 34 35 29 33 33 31 29 26 25 22 25 25 27 26 23 21 22 23 22 24 38 36 37 31 29 24 24 28 27 28 32 30 27 26 26 31 30 36 40 42 44 42 39 39
33 35 35 34 34 33 35 29 26 22 24 18 23 27 27 27 25 22 24 26 24 26 34 37 33 30 24 23 23 22 23 27 31 28 30 26 30 37 39 44 43 41 39 38 38
40 41 38 35 34 34 34 29 26 26 23 22 23 22 25 30 33 31 31 30 26 25 28 36 36 31 25 25 22 25 22 24 30 31 29 27 31 39 42 43 44 43 40 40 39

GFSSW_sfc_dewp_006.txt.gz
Dewpoint
54 54 54 55 55 56 55 55 55 55 55 56 57 57 58 58 57 51 31 35 40 67 64 51 45 42 41 39 40 38 29 26 28 29 29 30 27 23 23 21 26 28 29 32 37
53 53 54 54 54 54 54 54 54 54 56 56 56 57 57 58 41 27 42 57 63 66 44 44 41 40 38 37 37 33 26 26 28 31 31 29 28 27 24 25 26 29 32 34 35
52 52 53 53 53 53 53 53 53 53 54 54 54 56 57 55 29 13 65 62 65 64 36 39 37 39 35 35 34 30 26 26 26 29 29 27 26 26 24 23 26 26 28 34 34
52 52 52 52 52 53 53 53 52 52 52 53 53 56 57 43 8 37 67 65 65 47 32 36 34 35 32 32 31 29 25 27 28 28 25 26 27 25 23 25 28 27 29 34 35
52 52 52 52 52 52 52 52 52 52 52 52 53 55 44 29 18 28 66 65 54 41 31 30 32 32 28 29 28 27 25 26 28 26 24 25 24 22 22 25 28 28 32 34 36
52 52 52 51 51 52 53 53 53 52 52 52 53 55 39 22 17 17 23 29 30 40 33 28 30 30 28 29 27 27 26 26 27 24 22 22 22 23 23 26 29 31 32 33 35
52 52 51 51 51 51 52 52 52 52 52 52 53 49 36 21 16 29 39 39 32 33 31 28 30 29 29 30 29 29 27 27 25 23 22 22 22 23 26 30 29 32 33 33 37
52 52 51 51 51 51 51 52 52 51 51 52 55 47 29 21 23 20 20 27 38 38 34 33 31 31 28 30 28 25 25 23 25 23 22 22 23 25 26 31 30 31 31 34 38
52 52 51 51 51 51 52 52 51 50 51 54 50 45 25 36 27 24 22 18 17 26 29 34 33 32 30 28 27 26 22 23 25 26 24 24 25 25 26 28 31 31 33 34 37
53 52 52 51 51 52 52 51 49 52 54 51 48 41 30 21 19 25 25 19 23 20 35 35 32 30 28 26 24 24 23 22 25 25 24 24 25 25 26 26 31 32 34 35 37
52 53 52 52 52 52 46 33 35 44 46 28 30 21 19 20 25 22 31 23 22 33 30 32 28 27 27 29 27 24 24 24 26 26 26 27 26 26 27 26 29 32 36 37 39
51 52 52 52 52 52 43 29 35 36 28 30 34 31 26 29 25 21 31 23 25 27 29 30 28 28 27 27 27 27 27 27 27 27 27 26 24 26 27 26 29 33 37 38 40
50 51 51 52 52 47 38 34 37 37 29 21 22 25 27 27 25 22 28 22 21 23 25 27 25 27 27 28 28 27 27 28 27 28 26 26 25 25 26 26 29 34 36 38 40
50 50 51 51 46 39 35 36 36 39 23 17 22 21 21 21 23 21 27 23 22 20 23 26 24 26 28 28 27 26 26 26 27 26 21 26 22 24 25 24 26 32 36 38 40
50 50 50 50 42 37 37 39 36 40 17 15 23 25 19 21 12 16 23 27 20 20 25 26 25 28 27 25 25 25 24 27 27 26 26 24 23 22 20 23 21 22 34 38 40
48 49 50 48 47 41 38 39 39 28 17 16 24 23 22 22 14 14 20 23 25 21 25 25 26 28 26 23 24 25 26 28 28 25 24 22 20 16 18 20 22 24 34 38 39
46 48 48 45 42 39 40 35 27 19 17 16 22 23 20 21 17 22 19 18 19 23 25 26 25 26 26 23 26 26 28 23 25 23 21 23 19 20 22 21 24 27 30 39 40
48 49 46 40 43 43 38 28 22 17 18 16 16 22 20 20 17 19 20 16 18 21 19 21 20 26 27 22 25 25 27 21 22 21 19 24 20 19 21 26 33 36 39 41 40
47 40 44 43 42 42 39 24 18 18 17 17 14 20 20 20 18 18 19 14 15 21 19 21 20 23 26 23 23 25 25 26 25 24 21 19 22 25 25 27 33 37 41 42 42
40 35 37 43 45 43 36 27 17 15 16 17 17 17 20 20 19 19 18 17 14 18 25 26 24 23 25 24 23 24 25 24 24 24 23 19 21 20 21 25 38 40 41 42 42
39 37 38 43 48 39 31 26 22 18 21 23 19 17 15 19 20 19 16 14 14 14 23 25 27 26 24 26 22 23 24 26 25 22 21 22 21 26 24 31 35 41 42 42 42
34 34 42 48 35 36 33 28 26 20 22 17 26 23 19 17 21 20 19 18 14 16 20 26 28 26 24 24 23 25 24 28 23 27 24 22 20 25 30 35 40 42 42 41 41
34 36 44 45 30 32 30 29 28 21 23 24 23 25 24 21 23 23 22 18 14 17 23 28 27 23 22 29 29 24 24 26 30 30 27 21 21 28 33 37 43 44 42 41 41
39 32 38 40 39 31 26 27 29 27 24 25 25 26 29 25 25 23 21 20 15 16 42 36 30 27 22 26 26 27 22 24 28 27 25 23 24 25 30 34 40 43 43 41 41
38 34 36 34 32 35 30 30 28 27 26 25 26 24 28 25 22 22 24 23 21 30 33 36 31 26 21 18 23 24 22 23 26 27 25 24 23 26 28 31 35 44 43 40 39
37 37 36 37 35 32 31 27 25 24 28 23 24 23 28 29 27 21 23 27 24 25 28 37 30 27 23 18 18 20 22 24 25 25 25 24 25 28 29 28 37 43 43 41 39
41 41 37 35 35 34 32 31 26 27 26 25 22 23 25 28 32 33 34 32 30 31 33 34 31 29 25 20 18 22 21 23 26 26 26 24 26 27 28 34 38 42 42 42 41

GFSSW_sfc_dewp_009.txt.gz
Dewpoint
53 54 54 54 54 54 55 54 55 55 55 55 56 57 57 58 56 47 30 34 41 67 66 49 44 42 41 37 35 35 31 27 26 24 28 28 29 29 27 26 24 24 26 30 36
52 52 53 53 53 53 54 54 54 53 54 55 55 55 57 57 45 25 40 54 66 66 49 43 41 40 36 34 32 32 30 26 24 25 26 27 28 27 27 27 25 26 30 32 34
52 52 52 52 52 53 53 53 53 53 53 54 54 55 56 54 32 13 66 60 65 62 36 41 38 37 35 33 32 32 31 28 24 24 25 27 24 26 26 26 26 25 25 32 33
52 52 52 52 52 52 52 52 52 52 53 53 53 55 56 46 10 37 65 65 66 44 33 29 34 32 35 32 31 29 30 28 24 23 26 26 26 25 25 26 25 25 23 28 33
52 52 52 52 52 52 52 52 52 52 52 52 53 54 47 32 23 27 66 63 45 38 33 28 30 32 32 32 29 30 29 28 23 23 26 26 25 26 24 24 23 24 26 27 31
52 52 52 52 52 52 53 53 53 53 51 52 53 54 44 26 19 17 38 45 43 38 32 29 30 32 30 29 27 29 28 25 25 24 26 24 26 24 26 25 24 27 28 28 31
53 53 52 52 52 52 53 53 53 52 52 52 52 48 36 26 17 15 15 17 20 28 34 30 27 27 30 28 26 27 26 25 26 24 26 26 25 26 26 27 26 27 31 31 32
54 53 53 52 52 52 53 53 52 52 52 52 52 44 34 23 24 21 21 30 32 32 24 30 29 26 28 28 26 26 26 25 25 25 25 25 25 27 27 28 30 29 29 31 34
53 53 53 53 52 52 52 52 52 52 52 52 49 41 26 35 24 19 17 14 15 24 31 29 30 26 26 26 24 27 25 25 23 25 25 25 25 26 27 28 28 29 30 31 34
51 52 53 53 53 52 52 52 50 48 53 48 37 39 34 19 17 21 18 15 17 19 28 27 30 27 25 25 22 25 25 25 24 25 28 25 25 27 28 28 29 28 31 33 35
50 51 52 52 53 52 49 40 36 43 43 29 28 27 13 20 18 18 20 20 20 19 17 25 27 25 26 27 25 25 25 23 24 25 26 27 28 28 30 28 27 28 30 35 38
50 50 51 51 52 53 48 39 30 35 32 39 37 29 26 21 23 17 25 21 20 18 17 26 27 26 26 25 25 26 25 24 25 26 28 29 29 29 26 26 27 28 29 34 39
49 50 50 51 52 49 43 36 36 34 28 22 22 25 25 23 21 19 17 22 16 15 19 24 26 26 23 25 25 26 26 26 25 27 28 28 26 25 25 26 26 27 31 35 40
48 49 51 51 47 41 37 36 34 35 22 18 17 18 18 22 22 21 18 21 17 13 18 23 23 24 23 24 24 25 25 24 25 27 24 25 21 25 25 23 24 26 30 34 39
49 47 50 50 41 40 37 36 34 36 17 14 17 19 17 19 15 17 18 21 19 14 17 18 21 22 23 23 25 24 24 24 26 27 26 24 23 24 24 21 21 23 27 35 40
49 47 49 44 41 40 41 37 36 28 16 15 19 21 16 16 18 13 17 20 21 14 16 15 19 21 21 23 25 25 23 24 25 26 23 23 22 21 19 20 21 23 27 37 39
50 48 46 40 39 39 41 37 26 18 16 15 18 21 16 16 17 15 16 17 19 17 19 17 16 21 24 25 25 22 25 21 24 24 23 23 21 24 23 19 21 24 29 37 39
50 49 43 38 39 39 41 32 23 17 17 15 16 19 16 16 17 17 16 15 20 20 16 16 16 20 24 26 22 22 24 20 23 22 19 24 22 22 22 21 24 27 35 40 41
49 46 37 37 40 39 40 30 22 18 16 17 15 17 19 16 17 19 18 15 16 22 19 17 18 19 23 24 23 22 22 24 24 23 18 21 24 25 21 23 28 31 38 42 43
47 42 36 35 43 39 36 28 21 19 16 17 17 17 19 16 17 18 19 19 15 17 22 23 22 19 21 24 23 22 23 23 22 24 24 20 22 21 24 23 34 37 41 43 42
45 39 35 37 47 41 30 29 24 22 21 22 21 21 18 18 17 17 16 16 17 14 19 22 26 22 22 26 21 18 19 25 26 22 21 22 21 27 25 27 31 38 41 41 41
41 37 35 47 37 38 31 26 29 22 18 21 24 23 24 22 20 20 18 18 15 17 17 24 28 25 23 23 25 22 21 26 23 27 23 23 22 26 28 26 33 36 40 39 40
39 37 43 46 33 34 28 25 25 25 23 23 23 26 28 28 28 22 21 16 14 18 22 28 28 27 25 25 26 24 21 23 29 31 28 21 22 24 28 29 32 35 40 38 40
39 36 40 43 40 34 33 25 22 27 23 27 27 25 27 28 30 28 21 19 15 16 38 38 33 30 23 26 24 25 21 23 27 27 26 23 24 27 29 29 34 36 40 39 39
38 35 34 33 35 35 32 31 27 21 27 28 25 25 25 28 27 26 22 21 19 30 30 36 34 27 24 20 21 23 21 19 23 25 26 26 25 26 27 29 31 38 40 40 38
39 35 35 36 32 30 31 28 26 24 26 27 23 25 26 29 31 27 26 28 25 22 24 39 34 29 23 20 19 22 23 22 20 21 24 25 27 27 27 26 30 37 39 40 39
44 40 37 32 36 33 31 29 26 26 23 30 28 25 25 28 34 35 34 36 36 27 33 33 33 32 26 21 18 20 22 22 23 21 23 24 28 27 27 28 30 35 38 40 40

GFSSW_sfc_dewp_015.txt.gz
Dewpoint
53 53 53 53 53 53 53 54 54 54 54 54 54 55 55 56 56 46 41 36 42 60 63 49 51 46 44 44 44 44 36 33 32 31 30 28 24 27 30 30 31 28 28 38 41
53 53 53 53 53 53 53 53 53 53 53 53 53 54 55 56 48 36 42 57 58 64 46 43 44 44 42 42 42 39 34 33 34 32 30 30 25 24 27 28 31 33 35 39 39
53 53 54 53 53 54 53 53 53 53 53 53 53 54 55 55 43 18 64 63 59 64 34 33 41 44 42 42 40 37 34 33 32 32 31 31 25 24 25 27 32 29 34 36 37
53 53 53 53 53 53 53 52 52 52 52 53 53 54 55 50 10 35 65 65 66 54 34 28 29 34 39 40 39 36 35 34 33 32 31 29 28 26 26 27 30 30 34 34 34
52 52 53 55 54 54 54 54 52 51 52 52 53 53 50 35 27 33 65 64 55 50 33 28 25 26 28 34 37 36 35 34 33 32 29 29 28 27 24 30 31 27 31 35 35
53 51 52 54 55 54 54 53 53 53 53 52 52 53 47 29 24 20 19 32 37 39 32 28 27 26 26 30 34 35 32 31 32 32 29 28 28 27 27 31 25 24 26 27 28
52 52 52 53 53 54 54 53 53 53 53 52 53 49 39 29 26 25 26 21 32 35 32 29 27 27 28 26 26 26 26 28 30 29 26 28 28 26 30 29 29 27 27 28 32
49 51 52 51 51 52 53 54 53 53 53 53 53 48 36 27 30 27 24 20 23 32 35 32 28 26 26 29 26 25 25 26 27 28 26 26 25 28 29 29 32 30 31 32 34
51 50 50 51 51 51 52 52 52 51 52 53 49 44 27 32 27 26 26 23 21 23 32 36 33 26 28 27 24 24 23 24 26 27 26 27 25 28 30 28 32 33 34 33 34
51 51 50 50 50 52 52 51 49 51 48 47 43 35 30 27 21 27 27 25 23 22 23 17 19 20 20 24 23 22 23 24 25 26 24 26 28 28 31 29 30 33 35 36 37
51 52 51 50 50 51 50 41 39 44 43 38 37 28 23 29 31 28 28 27 24 22 16 24 19 17 24 21 25 23 23 24 26 26 25 30 30 31 32 31 31 33 35 38 41
51 52 51 51 49 50 48 39 38 38 35 36 34 32 26 26 24 27 22 25 22 18 16 15 13 14 24 24 24 27 23 23 24 25 31 30 30 31 33 31 31 32 34 37 44
51 52 51 51 50 46 42 39 38 38 36 33 31 31 33 32 27 25 24 17 19 16 14 13 13 14 23 26 25 26 26 24 23 26 26 27 27 29 32 31 32 32 34 41 43
51 51 52 51 44 40 38 39 39 39 31 21 23 26 27 34 33 29 26 19 17 16 14 12 12 15 18 23 24 23 27 25 24 26 25 29 23 28 28 29 30 29 35 41 42
51 51 51 50 41 34 36 37 38 36 19 15 16 23 24 32 30 32 29 24 15 15 15 14 11 13 13 19 21 22 26 24 25 26 26 25 24 25 29 29 29 28 32 42 44
51 51 51 48 46 36 36 39 38 28 19 14 15 17 20 30 30 27 28 27 18 16 17 16 16 13 12 13 19 24 25 25 26 25 25 26 26 23 28 28 25 27 37 42 43
50 50 49 46 41 38 35 40 31 24 15 7 14 15 17 21 28 29 27 24 21 13 16 17 14 14 12 13 15 24 23 22 24 22 24 24 23 24 29 31 24 36 41 42 44
50 50 48 45 44 42 37 37 25 18 20 21 17 14 14 17 22 25 26 23 21 17 15 15 14 14 13 11 16 17 23 21 21 24 22 25 22 24 30 29 30 37 40 42 44
49 45 44 44 43 42 37 28 24 20 17 16 15 15 17 18 21 20 22 22 20 19 16 14 14 17 14 12 14 19 23 23 23 27 22 23 28 31 28 27 28 40 42 42 45
46 44 41 43 43 44 35 29 23 23 19 18 17 16 16 17 22 23 19 20 21 21 20 22 18 16 14 12 14 16 26 24 26 20 20 23 26 30 27 25 35 42 43 45 46
45 40 39 41 46 39 30 28 26 24 23 21 19 18 19 19 19 23 24 23 20 20 19 19 25 23 15 14 11 15 20 25 23 22 22 22 26 31 26 33 38 42 44 44 44
43 35 43 44 36 37 32 28 32 27 28 23 22 20 20 23 23 27 25 27 22 19 17 17 27 21 23 16 15 19 24 26 21 25 24 25 27 28 37 40 40 43 44 45 43
39 39 46 46 30 31 31 29 27 26 26 26 26 25 20 24 31 31 29 29 32 33 19 17 18 24 24 23 20 19 24 24 29 29 27 25 27 33 33 37 42 42 43 43 42
39 32 40 41 39 35 32 28 27 27 25 25 26 27 21 22 28 28 30 29 33 34 46 31 19 16 24 23 22 18 24 23 29 27 25 28 25 33 31 33 40 42 41 41 41
40 35 38 33 34 34 33 30 26 24 24 22 25 26 24 21 24 29 30 30 33 38 34 33 17 25 20 23 24 21 24 24 23 28 24 26 28 30 29 31 39 41 40 40 40
36 37 36 33 33 29 30 28 24 24 24 22 22 25 28 24 27 29 31 33 31 32 31 33 23 19 21 22 20 21 23 23 23 24 27 25 25 31 34 32 38 40 39 39 39
43 44 40 33 32 32 32 31 28 29 28 27 25 24 24 29 32 35 35 34 33 31 29 33 38 24 19 19 21 20 23 23 24 25 23 21 25 30 33 30 34 39 39 38 39

GFSSW_sfc_dewp_021.txt.gz
Dewpoint
53 53 54 54 54 54 54 53 53 53 53 54 54 54 54 55 55 38 22 31 42 60 63 59 54 49 47 45 45 43 39 37 37 36 36 35 34 35 30 30 29 31 35 36 38
52 52 52 52 54 55 54 53 53 53 53 53 53 53 54 55 50 42 43 54 58 64 46 48 47 48 43 43 44 42 40 38 36 38 37 38 36 34 30 31 28 31 38 41 38
51 52 52 51 52 53 54 54 54 53 53 53 53 53 54 54 38 20 55 57 58 61 38 40 45 43 42 42 42 42 39 38 37 40 40 37 36 36 31 30 30 29 33 38 37
49 49 50 51 51 51 52 52 54 54 53 53 53 53 54 50 10 16 62 66 66 53 39 33 36 41 41 40 40 39 41 40 40 40 40 39 38 36 35 34 33 32 36 38 37
51 51 49 48 50 51 51 52 52 53 53 53 53 53 50 43 24 16 54 50 56 49 38 32 30 31 28 35 38 40 40 38 40 41 40 39 37 36 36 36 35 31 39 38 37
52 52 51 51 49 49 51 52 52 52 52 52 52 53 48 35 23 27 21 21 21 44 41 33 29 29 26 26 26 32 33 35 37 39 38 36 34 32 31 33 33 33 38 38 38
53 52 52 52 51 51 49 50 52 52 51 51 51 48 44 41 37 30 28 24 20 19 32 37 30 26 25 24 23 24 22 24 26 29 29 29 27 29 30 32 32 31 34 37 38
52 52 51 51 52 52 51 51 50 49 50 51 50 45 42 44 45 43 39 30 19 19 26 29 34 28 27 27 26 25 26 23 25 26 27 27 25 29 30 31 32 32 30 34 37
52 52 51 50 51 52 52 52 51 49 48 49 44 45 38 44 43 42 34 23 13 15 21 23 29 28 26 25 23 25 18 20 21 26 27 28 26 29 32 31 31 30 32 30 33
51 51 51 50 50 52 52 51 49 47 46 44 43 41 42 32 28 27 31 27 18 18 21 20 31 29 25 23 20 20 23 24 22 25 25 25 27 28 30 30 31 31 33 33 31
50 51 51 51 51 51 50 42 32 39 43 40 36 33 27 34 29 26 25 25 23 25 13 21 22 29 27 27 25 25 26 26 27 27 25 26 27 28 29 30 30 31 32 34 37
50 50 50 51 50 52 47 38 36 36 35 37 36 39 40 40 34 28 24 23 24 13 18 20 16 23 31 29 28 26 23 23 25 27 25 26 25 26 29 28 32 32 33 38 45
51 50 50 50 51 46 40 40 40 39 35 35 35 34 33 35 34 30 26 26 21 16 13 13 13 19 27 27 27 25 22 21 22 27 29 28 27 28 28 32 32 34 34 39 42
51 51 50 51 44 41 40 36 38 38 31 29 33 33 33 31 29 29 27 28 21 17 13 10 10 17 19 24 18 17 22 21 23 25 22 29 24 27 28 29 29 28 29 34 45
50 49 50 50 44 40 41 44 43 37 15 15 22 33 33 29 27 27 26 26 25 17 17 15 11 11 16 17 18 18 23 26 27 28 27 27 25 26 28 27 28 28 29 40 45
50 50 50 45 46 43 45 45 39 29 18 18 19 18 25 31 29 29 30 25 27 24 17 13 16 11 14 20 21 19 23 26 26 25 23 24 26 25 25 27 28 29 39 43 45
50 49 49 46 40 43 44 39 29 23 20 17 19 18 19 20 28 28 27 25 20 21 20 17 15 16 14 12 17 16 17 17 20 21 23 24 25 25 28 30 30 28 38 44 47
50 50 47 46 45 45 41 34 22 19 21 22 21 16 18 20 19 23 24 27 22 20 19 16 14 16 15 13 12 14 17 21 18 22 22 26 24 26 30 30 32 31 41 45 48
49 45 43 43 46 44 39 25 21 24 24 23 22 17 17 20 19 21 23 24 25 21 15 16 13 20 16 15 12 12 15 18 20 25 22 24 26 28 32 32 36 41 43 45 47
44 42 39 42 45 44 35 24 27 27 25 26 22 21 19 19 19 21 23 29 30 29 25 22 14 17 16 16 14 13 14 13 19 19 20 23 23 25 27 31 40 41 42 45 48
40 36 37 45 46 39 29 27 27 26 25 25 25 22 20 20 23 22 22 25 31 30 32 23 21 22 19 17 14 13 13 17 13 20 21 20 23 29 27 34 38 40 42 45 47
37 31 41 45 36 35 28 29 31 27 29 28 27 25 23 25 23 21 22 25 29 30 30 32 21 20 17 18 18 15 12 14 18 21 20 23 22 29 29 31 38 38 42 45 47
36 36 43 45 31 31 33 30 31 30 30 28 27 27 27 25 23 25 26 29 26 26 31 34 28 19 16 21 21 14 14 13 16 26 23 20 22 27 34 33 38 40 42 45 46
37 30 36 38 36 33 31 30 29 29 28 27 28 27 24 22 24 26 23 22 23 23 36 33 33 25 15 17 20 17 14 17 14 13 17 22 22 30 35 37 40 41 43 45 46
34 31 37 30 31 33 31 31 28 29 30 26 25 25 25 22 23 24 27 26 25 29 31 30 28 32 29 18 18 22 16 13 18 18 19 20 22 28 35 38 41 42 43 44 45
34 36 36 34 34 30 29 30 29 30 33 29 28 28 30 28 27 27 30 28 25 28 31 31 26 31 30 24 18 16 21 14 15 18 22 25 23 28 35 40 42 42 42 43 44
41 42 38 30 30 27 26 29 30 32 32 34 32 31 30 29 33 33 31 32 31 29 29 29 29 22 27 24 19 17 16 19 19 23 22 23 25 30 33 39 41 42 42 42 43

GFSSW_sfc_dewp_024.txt.gz
Dewpoint
52 52 52 52 52 53 54 54 54 54 54 54 53 53 54 54 54 41 28 30 40 60 63 58 51 51 48 45 45 43 39 36 36 36 35 35 34 35 34 32 30 31 32 35 42
50 50 50 51 52 52 52 52 53 54 54 54 54 53 53 55 50 42 39 54 59 63 45 49 49 48 45 44 44 42 39 38 35 37 36 37 38 39 35 36 35 32 33 40 40
51 51 50 49 49 50 52 52 52 52 54 54 54 53 54 53 35 19 53 53 56 60 34 46 47 46 43 42 43 42 39 39 37 37 40 40 39 41 37 35 37 35 36 37 39
52 52 52 51 51 49 49 50 52 52 52 53 53 53 54 50 3 29 62 64 66 53 33 37 44 42 40 39 41 40 42 40 38 38 40 40 41 40 40 38 39 38 39 37 38
51 52 52 52 52 51 51 50 49 51 51 52 52 53 48 42 30 16 51 42 50 48 32 33 36 40 39 40 39 39 39 39 40 39 39 40 40 40 39 40 40 38 35 37 38
51 51 51 51 51 52 52 52 51 50 49 51 50 51 46 39 35 25 40 25 20 39 39 31 28 31 30 28 29 36 38 35 36 36 35 37 35 37 36 37 33 32 34 37 39
51 51 51 50 50 50 52 50 50 51 51 48 50 46 43 40 43 44 43 37 23 19 22 39 32 28 27 25 25 24 23 24 24 24 26 28 27 28 29 32 32 32 32 34 39
51 52 50 50 50 49 50 52 52 51 50 50 48 44 37 43 44 44 44 41 37 32 22 23 36 30 27 27 26 25 24 21 22 25 25 26 22 26 29 32 32 33 33 33 37
50 51 50 50 50 50 51 51 51 51 50 49 43 41 35 44 41 43 42 37 27 28 17 18 31 30 28 25 24 25 17 16 17 17 24 27 23 26 31 31 30 30 32 33 34
50 51 51 50 50 50 51 50 49 47 45 43 41 37 39 27 37 34 41 38 25 18 17 17 29 28 25 24 12 20 19 22 15 20 23 23 25 26 28 30 31 32 33 35 36
50 50 51 50 50 50 48 42 37 37 41 35 35 35 32 35 37 31 32 35 26 20 13 20 19 25 20 21 20 19 16 19 19 25 25 25 26 27 28 29 29 30 31 33 36
50 50 50 50 50 50 46 37 37 37 34 36 37 37 38 37 32 34 27 24 23 17 14 19 16 19 24 24 23 23 21 23 23 27 26 26 26 28 28 28 29 30 30 34 39
50 50 50 49 50 43 39 39 40 38 33 34 35 34 34 37 35 30 33 24 19 16 11 8 10 16 26 25 26 25 24 22 22 26 26 25 22 24 27 31 31 34 35 36 39
50 50 50 50 42 41 41 39 44 43 30 28 33 33 33 32 30 29 30 25 21 15 13 9 9 14 21 25 25 22 28 27 27 26 21 26 24 24 26 29 30 29 30 31 41
50 50 50 49 43 39 40 45 44 38 16 15 28 33 33 28 26 27 28 26 23 18 13 12 9 8 15 23 28 23 26 27 26 24 25 26 25 27 28 27 28 29 29 31 45
50 50 50 45 44 43 44 44 39 29 17 20 20 19 25 32 31 28 27 26 28 18 14 13 17 10 11 17 25 24 22 23 26 25 21 21 25 21 27 27 28 30 33 43 47
49 49 48 45 39 43 43 39 27 21 21 19 21 20 19 20 27 29 28 21 23 22 19 16 13 15 14 18 21 18 17 16 16 17 19 23 23 21 29 30 29 29 31 44 48
49 49 46 43 44 44 40 31 21 18 21 24 23 17 16 23 20 22 25 25 21 21 21 18 15 15 15 13 18 17 17 16 12 19 21 23 24 26 29 29 32 32 35 46 48
48 42 40 42 44 45 39 22 19 25 24 24 22 20 16 19 21 22 22 29 28 23 17 19 17 18 14 14 14 17 18 19 17 24 22 24 26 27 29 30 32 35 43 46 48
43 41 38 44 45 44 32 23 25 27 27 24 23 21 19 17 17 22 23 28 28 28 31 21 17 17 15 14 13 14 17 16 17 15 18 22 24 23 26 26 37 41 42 45 48
37 34 37 46 46 39 25 27 29 27 27 24 25 23 20 19 19 17 25 31 30 26 31 28 20 20 17 15 12 14 14 16 14 22 19 19 23 29 27 28 35 39 42 46 48
38 27 38 46 35 34 28 29 31 27 28 28 28 25 20 24 24 17 19 24 32 30 25 32 26 20 16 17 16 12 13 16 12 14 20 22 21 29 30 29 36 37 42 46 48
35 34 41 43 29 31 34 31 31 30 30 31 29 28 28 27 23 26 28 31 31 31 26 32 29 20 17 18 20 14 13 16 23 23 17 16 19 28 32 35 35 38 43 46 48
32 28 33 36 36 34 30 29 29 31 30 28 28 28 26 25 25 26 28 27 28 31 36 33 30 29 19 19 19 15 14 13 14 15 22 16 21 25 32 35 39 40 43 46 47
33 30 36 28 29 33 31 30 28 28 33 32 25 26 27 27 26 26 28 29 27 33 37 31 26 29 28 28 29 22 16 15 12 13 15 20 22 25 29 33 38 40 44 45 46
32 32 34 32 33 29 28 28 29 30 28 28 28 30 31 28 28 27 29 31 30 30 35 34 26 28 23 25 27 26 21 16 15 14 14 20 20 25 31 40 41 41 43 44 46
37 38 38 31 29 25 24 29 30 31 30 33 33 31 30 30 33 33 32 32 32 34 32 31 28 24 20 23 25 21 22 20 17 16 18 20 18 30 35 39 40 42 43 44 45

GFSSW_sfc_dewp_027.txt.gz
Dewpoint
50 50 50 50 50 51 52 52 52 52 53 54 54 54 54 55 54 38 17 32 39 58 61 53 49 47 48 44 46 44 36 31 30 32 28 35 33 36 35 37 36 35 36 36 40
52 51 50 50 50 50 49 50 51 52 52 53 54 54 54 54 48 38 40 53 59 62 43 43 39 45 41 43 44 42 37 33 33 32 31 35 36 37 37 36 36 37 39 37 40
51 52 52 52 52 51 51 50 50 50 51 51 52 53 53 52 30 11 57 57 56 58 32 35 37 41 40 43 42 41 39 37 34 36 37 36 36 37 37 35 35 37 39 42 42
51 51 51 51 51 52 52 51 51 50 50 51 51 52 53 47 14 25 54 52 63 54 32 24 37 40 36 39 41 38 40 39 37 38 38 37 38 38 39 39 39 40 42 42 41
51 51 51 51 50 50 50 51 52 50 51 50 50 50 47 41 29 22 48 44 37 49 36 24 34 31 28 34 37 40 38 39 41 40 41 40 38 38 36 37 37 40 41 40 39
50 50 50 50 50 50 50 51 51 49 50 50 49 50 44 36 38 38 41 38 18 41 36 28 26 32 29 32 33 31 37 35 37 37 37 35 33 32 31 35 33 34 34 33 35
49 49 50 50 50 48 49 50 51 51 51 50 50 44 40 36 40 39 39 40 35 26 18 29 32 30 29 27 30 27 28 29 29 30 27 25 21 21 25 27 29 30 33 35 37
50 50 50 50 50 49 49 51 51 51 51 50 51 44 36 39 40 40 41 41 40 37 33 20 29 31 30 27 26 24 25 19 21 24 23 24 17 21 25 28 31 34 34 36 38
50 51 50 50 50 50 50 51 50 50 50 49 46 40 34 40 36 40 42 36 32 35 31 20 20 26 29 27 24 25 18 20 19 21 19 24 18 20 27 29 32 32 33 34 35
50 51 51 50 50 50 51 50 48 46 44 43 40 36 32 25 34 35 39 40 34 28 25 22 22 21 18 23 19 19 20 19 18 14 18 15 20 25 28 30 32 33 34 36 38
49 50 50 50 49 50 48 42 38 37 37 34 32 32 28 28 32 29 35 39 37 22 18 19 16 19 19 20 21 20 21 20 17 19 20 22 25 28 29 30 32 33 35 38 41
50 50 50 50 50 49 43 36 37 38 35 34 35 34 34 33 31 25 31 29 30 18 17 16 15 17 21 20 18 17 16 17 18 19 24 25 25 28 30 29 29 32 34 37 40
51 50 50 50 50 44 41 40 42 43 35 33 33 33 34 34 34 30 30 26 23 19 15 14 14 14 16 20 21 19 17 17 19 25 26 27 25 25 25 30 28 30 37 39 41
51 51 51 50 43 42 39 41 44 44 31 24 30 31 33 33 31 34 26 25 20 18 15 13 13 12 14 18 22 21 22 20 21 23 22 25 22 26 25 26 28 32 37 38 38
50 49 50 48 44 38 39 43 43 40 7 15 30 33 30 29 26 26 31 25 23 18 17 13 11 11 14 16 22 21 22 23 23 26 27 24 22 23 29 26 27 26 34 39 41
50 49 49 44 45 40 43 44 40 28 9 17 22 21 22 23 24 26 27 25 24 24 17 15 14 11 11 16 22 23 24 27 27 25 23 25 23 22 20 23 24 26 33 42 47
49 48 47 43 39 44 44 40 26 17 15 20 21 19 20 25 24 25 23 23 19 22 21 17 14 13 12 12 21 25 24 21 21 21 24 23 21 23 25 25 29 30 34 44 48
50 48 46 43 45 46 42 34 19 14 17 21 22 17 17 24 25 24 26 27 21 23 21 17 15 14 12 12 18 24 25 20 19 17 17 22 17 18 28 28 28 33 36 45 48
47 43 42 42 44 45 39 23 15 23 25 23 21 15 19 18 17 23 27 35 26 17 20 20 17 18 13 13 15 21 20 21 19 25 18 17 26 30 32 33 35 34 38 45 49
43 41 39 46 46 44 35 22 22 26 25 24 19 22 16 16 16 17 28 35 35 33 31 25 21 18 15 12 17 21 22 19 18 12 11 18 25 19 29 32 34 36 41 46 49
42 37 37 45 47 39 29 27 27 28 27 25 21 21 19 14 19 19 20 26 37 35 33 29 26 20 16 13 12 16 19 20 19 16 9 11 16 34 32 35 35 39 43 47 49
40 34 39 44 36 35 32 29 32 28 29 27 26 23 22 19 24 22 17 26 34 37 34 31 32 22 17 16 15 15 20 21 14 20 15 19 16 32 36 35 37 41 44 47 48
37 36 42 43 29 31 30 30 31 30 29 28 26 26 27 26 25 26 25 29 32 34 34 37 30 21 20 19 19 16 16 21 24 24 19 10 16 29 33 34 35 41 44 47 48
37 32 38 40 37 32 28 26 28 29 30 32 29 27 27 24 25 23 25 26 28 32 36 38 30 28 17 20 23 18 15 16 20 16 15 13 11 21 27 31 37 41 45 47 48
37 34 36 30 31 30 29 29 28 25 30 31 29 30 30 25 25 25 30 32 29 35 35 38 28 27 26 26 28 27 16 14 17 17 17 15 15 20 24 30 38 43 45 47 47
37 36 35 33 31 27 28 26 28 27 29 26 29 30 30 29 28 27 30 33 33 34 34 34 29 28 25 24 24 25 26 17 16 16 17 19 22 21 27 36 39 42 44 45 46
41 42 39 32 30 29 28 28 28 30 30 30 30 30 30 30 32 33 33 32 32 32 33 31 31 28 22 23 24 22 24 24 20 17 17 16 21 23 26 32 38 43 44 44 46

GFSSW_sfc_dewp_030.txt.gz
Dewpoint
53 53 52 52 51 51 51 50 51 51 52 52 53 54 54 55 54 39 24 31 39 61 61 47 44 42 44 41 43 40 34 29 27 27 28 32 30 34 36 34 33 34 36 37 40
51 51 52 52 52 52 52 52 52 51 50 50 52 52 53 54 45 36 44 53 58 60 23 39 35 35 38 40 40 40 33 30 30 30 29 29 31 30 34 35 34 31 35 37 40
51 51 51 51 50 51 51 52 52 52 51 50 51 52 52 51 35 19 55 58 56 56 21 24 27 28 29 32 37 38 34 32 32 31 32 31 33 31 32 33 35 32 34 36 37
50 50 50 50 50 49 50 50 51 51 51 51 51 51 52 44 13 42 50 53 57 55 32 23 30 25 29 25 33 36 36 36 34 33 33 34 35 33 34 35 35 33 33 34 37
48 49 50 50 51 50 49 50 50 50 50 50 50 49 45 36 24 27 49 48 29 46 32 24 25 29 31 30 28 31 34 34 34 36 36 36 35 36 34 34 34 31 30 31 33
49 50 50 50 50 49 49 49 50 51 51 50 50 51 41 31 28 33 35 34 29 26 38 28 22 26 33 32 29 29 28 29 33 35 36 35 34 33 32 33 30 27 27 27 27
49 50 50 50 50 50 51 51 51 51 51 51 50 47 41 31 30 32 32 32 34 24 27 32 24 29 33 32 31 29 29 29 30 30 31 32 30 27 27 25 25 26 29 29 30
51 51 50 50 50 50 50 51 51 51 51 51 51 46 37 32 32 32 33 33 33 34 28 21 27 28 30 30 27 26 29 25 27 27 27 28 25 26 25 24 26 29 29 29 30
50 51 50 50 49 50 50 51 50 50 50 50 46 44 27 39 32 31 31 31 27 31 33 23 18 24 27 26 26 26 24 26 26 25 23 24 24 25 24 25 29 31 32 30 30
50 51 51 50 50 50 51 51 48 48 45 43 39 35 29 16 25 31 30 36 33 28 31 25 18 20 22 24 24 24 25 26 27 27 22 21 22 25 24 25 30 31 32 31 32
50 51 51 51 51 51 47 36 33 33 35 29 23 29 20 20 22 24 30 35 35 31 25 24 15 16 19 24 25 25 26 26 26 26 25 24 24 25 28 30 31 32 33 33 34
49 50 50 51 50 51 42 33 36 39 33 30 28 25 23 22 24 24 23 29 32 25 23 19 15 17 17 19 20 22 24 25 25 25 26 25 25 28 30 31 32 32 32 33 35
51 50 49 50 50 46 38 37 39 40 34 26 24 24 25 27 25 24 22 20 25 25 19 18 16 13 13 17 19 20 21 24 23 24 25 25 25 28 30 31 31 31 32 31 30
51 51 50 50 44 39 35 39 39 41 29 13 25 27 30 31 30 31 30 19 21 23 21 18 16 14 12 12 17 20 20 20 21 21 18 23 23 30 31 32 32 31 31 29 34
51 50 50 48 41 36 36 40 40 39 7 16 28 28 26 27 25 26 28 26 17 20 21 18 16 15 14 13 14 17 19 20 22 22 24 23 23 28 31 31 31 31 31 29 38
50 49 49 43 41 39 39 41 40 29 9 12 20 19 19 23 24 25 25 30 22 16 21 19 16 15 15 13 14 15 18 22 24 23 22 25 25 27 29 32 32 32 25 27 43
49 48 46 42 37 43 43 37 28 16 9 11 18 18 14 17 22 26 25 25 22 15 16 21 17 15 14 14 16 17 23 19 22 22 23 26 26 29 33 29 31 27 26 40 46
49 47 45 42 44 44 41 35 15 6 10 19 18 15 10 17 18 21 23 30 24 15 11 17 18 17 14 15 16 19 24 17 19 22 23 27 26 27 28 30 31 27 27 41 46
47 42 40 43 45 44 39 25 13 17 21 20 18 10 7 13 13 13 23 28 34 21 16 17 19 17 15 13 16 20 20 21 24 25 19 22 26 27 27 25 24 25 27 41 47
40 39 36 43 46 44 35 24 22 24 23 21 16 14 14 12 12 11 21 34 32 32 36 27 25 20 15 14 14 20 22 22 22 24 22 19 20 22 24 24 27 34 33 39 48
40 34 37 43 47 40 34 27 25 25 27 24 20 19 16 13 12 10 19 28 36 32 34 31 28 24 18 16 14 16 20 23 25 21 22 18 16 26 27 27 33 34 37 45 48
37 36 36 42 39 37 32 27 32 27 28 27 27 24 22 18 19 20 21 26 34 33 32 31 31 27 19 17 16 17 20 25 19 24 19 16 14 31 32 35 32 33 42 46 47
33 34 40 41 34 34 28 25 26 26 26 27 27 25 27 25 23 23 24 31 32 33 35 36 30 26 23 18 18 18 19 24 25 27 24 15 14 26 33 34 35 40 43 46 47
37 36 35 37 35 30 28 24 23 23 26 26 30 28 27 24 22 22 21 34 35 36 38 38 34 29 20 18 17 17 17 21 24 20 19 16 14 24 29 31 36 42 45 46 47
37 35 34 34 32 30 29 26 23 22 25 25 29 28 27 25 24 21 29 29 36 37 37 37 29 29 27 26 26 25 15 15 20 21 18 16 15 16 27 29 36 41 45 45 45
40 36 32 34 31 27 28 25 25 26 28 25 25 25 26 26 26 25 24 27 33 36 38 36 33 30 26 24 24 23 22 16 16 18 18 16 18 20 21 20 30 41 43 44 45
42 41 39 33 31 29 29 28 28 29 30 27 29 29 29 28 31 31 31 32 31 31 32 36 33 30 23 22 23 22 23 21 18 18 19 17 21 21 25 24 31 37 43 43 45

GFSSW_sfc_dewp_033.txt.gz
Dewpoint
51 52 52 52 51 52 52 53 52 52 52 51 51 52 53 54 54 41 36 35 39 59 59 44 44 44 44 40 35 35 31 29 28 27 25 25 27 29 31 31 30 30 31 34 36
50 50 50 51 51 51 51 51 52 52 52 52 52 51 52 53 44 33 42 55 61 62 28 38 39 35 37 42 38 37 35 32 31 29 28 28 27 28 29 30 32 32 33 31 34
49 49 50 50 51 51 50 50 51 51 51 51 52 52 51 50 32 18 55 57 59 54 22 21 34 35 30 28 37 37 35 34 31 30 30 29 29 29 30 31 31 32 34 33 33
48 49 50 50 50 51 50 50 50 50 51 51 51 51 52 44 14 41 50 53 54 40 26 22 19 27 29 29 28 31 33 35 34 33 32 30 31 31 32 33 33 34 35 33 32
49 50 50 50 51 51 51 50 50 50 50 51 51 50 45 32 26 37 50 49 36 37 41 34 23 23 30 27 28 27 27 28 31 33 32 32 32 32 33 35 35 34 34 33 30
49 50 50 51 50 51 52 52 52 51 51 51 51 51 43 30 26 26 28 29 32 30 33 35 28 25 30 31 29 30 29 29 28 28 29 32 32 33 35 36 35 33 32 30 28
50 50 50 50 50 50 51 52 52 52 51 51 51 46 39 30 24 25 28 26 25 28 26 29 32 27 28 28 30 30 30 31 30 29 28 29 30 31 33 33 33 31 29 28 30
50 51 50 50 50 50 50 52 52 51 51 51 51 45 38 29 26 22 22 22 25 27 30 27 27 30 26 28 27 26 30 29 30 30 28 29 29 30 31 31 31 28 27 28 32
52 52 51 50 50 51 52 52 51 51 51 50 47 42 31 37 28 27 26 21 22 26 29 27 25 25 26 23 25 28 27 28 28 28 28 29 28 29 27 29 30 30 28 30 33
51 51 51 50 51 51 52 51 49 48 47 42 39 34 32 16 15 25 26 28 27 26 25 28 23 19 18 21 20 23 24 26 26 27 27 27 27 28 27 26 29 30 29 30 34
50 50 51 51 50 51 48 36 32 35 37 30 24 29 22 19 16 14 18 27 30 28 23 26 21 15 16 19 22 22 23 24 26 27 27 28 29 30 29 27 27 28 30 34 36
50 50 50 51 51 50 46 31 32 34 32 28 23 20 19 17 15 14 16 19 25 26 23 23 21 18 14 14 17 18 20 23 26 27 27 28 27 28 29 29 29 30 33 35 36
51 51 51 51 50 46 35 33 34 35 31 25 19 17 17 18 19 17 16 16 16 23 22 19 21 19 14 14 14 17 20 23 25 27 27 27 27 29 28 29 29 29 31 34 36
51 51 51 50 45 36 31 35 34 36 28 13 19 21 24 24 24 23 19 14 12 13 20 19 17 17 17 14 13 16 18 20 23 24 22 26 22 26 26 26 28 31 33 35 35
51 50 50 48 41 35 34 34 35 35 13 12 20 26 23 22 23 26 26 22 13 10 12 16 18 15 17 16 14 15 17 21 23 23 23 21 19 22 23 24 28 32 34 36 35
50 49 49 42 40 38 37 38 35 29 12 9 19 22 20 23 21 22 24 26 24 14 11 14 16 18 16 17 16 14 15 20 23 21 20 22 21 21 23 26 29 32 34 34 32
50 48 46 41 37 38 39 37 30 19 16 16 21 23 22 14 18 17 20 21 24 17 14 11 14 17 18 16 17 16 19 15 18 18 20 20 21 25 26 28 31 33 34 30 29
49 48 46 40 42 41 40 34 24 11 15 18 13 12 10 6 16 16 14 16 18 23 29 6 7 16 18 16 17 17 19 14 17 18 16 20 22 23 31 32 33 34 31 28 42
48 42 39 40 41 41 39 32 18 18 17 16 14 12 11 3 14 9 10 14 24 31 35 18 5 12 17 17 16 17 16 19 19 19 14 18 25 30 32 30 30 30 33 32 45
43 36 35 41 44 44 35 26 24 22 22 22 20 15 10 10 21 19 12 29 23 26 37 31 23 9 15 17 17 17 17 17 18 19 18 19 23 24 25 25 28 26 26 33 46
43 32 36 42 44 38 35 26 22 22 25 23 22 21 19 14 12 9 8 26 31 27 30 31 34 27 13 19 16 14 15 18 21 18 17 20 24 28 26 28 29 26 29 33 46
38 33 34 39 40 42 32 22 28 23 22 23 25 25 24 23 21 17 20 25 29 28 30 29 35 31 22 19 17 16 18 22 20 24 20 23 23 24 27 28 31 33 33 37 47
33 31 38 37 35 35 26 22 21 18 18 21 24 26 26 26 25 25 23 28 30 34 37 35 33 26 31 28 20 17 16 22 27 28 26 19 22 22 29 33 31 35 38 45 46
35 37 33 37 34 31 29 25 20 19 18 21 21 25 28 24 23 25 21 32 33 35 40 39 34 32 32 28 18 18 16 19 26 24 24 22 19 23 30 34 36 41 44 45 46
36 36 33 35 33 31 30 27 27 25 25 24 23 24 24 23 21 22 28 28 28 37 39 40 31 26 30 36 31 16 16 16 22 24 23 24 21 22 31 34 37 42 43 44 44
40 33 31 32 32 29 29 28 26 26 27 28 27 27 27 28 27 26 27 27 31 34 39 39 34 29 24 32 32 21 16 16 18 23 23 20 21 20 26 24 33 39 42 43 44
39 38 41 33 32 35 31 28 27 28 29 29 29 29 29 30 32 32 31 30 29 28 30 34 36 28 30 31 30 21 21 18 19 22 22 20 20 21 21 23 28 39 42 42 44

GFSSW_sfc_dewp_036.txt.gz
Dewpoint
50 50 50 51 51 51 51 51 51 51 52 52 52 53 53 52 53 40 36 36 42 60 59 43 52 45 46 48 41 33 28 27 28 28 27 28 27 28 30 29 30 30 31 33 34
49 50 50 50 50 51 51 51 51 51 51 52 52 52 53 54 45 38 42 58 60 62 31 28 33 40 40 40 41 34 30 29 30 30 29 29 28 29 31 31 32 34 34 34 34
49 49 50 50 51 51 51 51 51 51 51 51 52 52 53 51 37 19 56 61 62 56 25 27 31 38 35 34 35 39 34 33 32 33 32 30 31 32 31 30 32 32 34 34 35
50 50 50 51 51 51 51 51 51 51 51 51 51 52 53 46 17 33 54 53 54 33 25 23 22 23 35 33 30 28 36 35 34 34 34 32 32 32 32 32 33 35 36 35 37
50 50 50 51 51 51 51 51 51 52 52 51 51 51 45 29 28 30 57 52 34 31 27 27 25 24 23 28 32 29 27 28 32 32 32 33 31 32 32 33 33 34 36 37 38
51 50 50 51 51 52 52 52 52 52 51 51 51 51 43 31 25 22 28 28 26 30 33 34 29 28 27 26 27 30 28 28 28 27 27 27 27 29 30 32 34 35 36 36 37
52 52 52 51 51 52 52 52 52 52 51 51 51 46 40 31 26 25 24 25 27 26 28 29 34 35 34 29 27 27 29 30 29 29 29 30 29 30 30 31 32 34 35 36 37
52 52 50 50 51 52 52 52 52 52 51 52 52 45 36 30 27 27 25 24 21 23 24 25 28 26 30 32 28 26 26 26 29 30 30 30 29 31 32 31 32 32 33 35 37
51 51 50 50 50 50 52 52 52 51 52 51 47 41 32 36 29 29 24 19 14 15 21 23 25 27 26 27 27 27 25 25 26 28 27 29 29 31 32 32 34 34 32 33 34
51 51 52 51 51 51 51 51 50 49 46 42 41 34 34 28 19 23 23 24 19 18 19 23 22 21 22 20 24 25 24 25 26 27 27 27 28 30 32 31 33 34 32 33 34
50 51 51 51 52 51 49 42 26 33 40 36 31 33 29 23 18 13 14 15 24 24 20 20 21 19 19 20 20 24 25 24 26 26 27 28 29 29 32 32 32 35 35 36 37
50 50 51 51 51 51 47 37 30 31 27 28 25 23 19 16 14 13 14 13 17 22 24 19 20 23 19 16 15 16 20 22 24 23 24 26 27 30 32 32 32 34 34 36 37
51 51 51 51 50 47 39 31 32 31 27 25 23 21 18 15 14 15 15 12 11 14 19 18 17 20 20 17 15 16 17 20 20 21 22 23 25 30 30 32 32 33 35 37 38
51 51 50 50 44 37 33 32 30 32 24 16 13 16 16 15 15 16 18 16 10 8 11 17 18 14 17 19 16 17 14 14 17 18 19 21 21 30 31 31 32 33 34 35 36
51 51 51 49 43 34 35 35 35 32 18 14 18 22 25 21 25 26 26 17 13 9 9 7 15 17 14 16 18 17 14 15 16 18 22 19 21 25 28 27 28 31 32 34 37
50 50 50 42 40 35 35 36 36 28 19 28 27 23 24 25 27 23 24 26 21 14 11 7 7 9 17 14 15 18 16 17 17 17 19 23 22 22 24 28 27 30 31 32 37
50 49 48 42 36 38 38 36 31 24 21 20 17 16 16 15 23 19 19 17 21 21 17 16 10 7 8 14 16 16 23 18 17 16 18 21 21 24 28 26 27 30 32 35 39
48 48 46 41 37 39 40 36 26 11 13 14 13 11 6 8 8 7 13 10 12 21 28 25 21 8 9 12 16 16 21 17 16 15 15 18 20 22 28 27 30 33 35 38 38
47 44 42 39 40 40 37 32 20 18 15 15 21 16 10 12 14 14 17 16 18 23 32 26 23 21 7 12 15 17 15 20 21 17 13 15 21 26 27 28 31 31 36 39 47
43 42 36 39 43 40 35 28 20 17 16 17 21 31 20 18 22 19 19 25 22 19 34 26 25 25 25 6 13 18 17 17 19 18 18 15 20 20 30 31 31 34 36 39 49
43 36 38 40 41 40 35 29 22 15 17 22 22 19 26 24 23 19 16 18 26 22 23 28 30 28 27 13 11 16 15 17 22 17 17 18 18 29 35 33 31 34 34 39 48
40 35 34 36 38 42 34 22 24 21 20 15 17 25 27 27 24 25 16 29 31 28 26 30 34 28 25 23 15 18 17 20 18 23 20 18 19 32 30 28 32 33 31 43 48
37 30 39 37 35 35 28 25 23 21 30 20 18 19 29 28 27 34 31 28 28 30 32 37 31 26 25 27 30 25 18 22 26 31 24 16 20 30 28 28 32 35 32 45 49
40 38 34 33 36 33 31 26 24 29 26 22 20 23 33 29 22 23 25 35 28 30 35 37 34 29 28 32 38 32 22 19 23 22 21 21 23 25 27 32 35 39 44 46 48
38 35 33 34 33 31 30 29 27 25 23 24 25 25 25 23 22 23 27 30 27 37 35 38 33 30 27 31 36 37 34 19 19 24 23 24 22 25 31 35 41 46 47 47 47
39 32 32 34 31 34 32 29 29 26 26 25 28 26 25 26 29 27 26 26 26 33 35 38 34 34 28 25 33 34 32 30 16 20 24 26 26 34 38 36 41 44 45 45 46
40 39 37 34 34 37 32 29 28 29 28 27 27 26 29 31 32 32 32 31 29 28 29 30 36 33 26 27 30 29 30 30 25 20 25 25 32 34 33 27 39 43 44 45 46

GFSSW_sfc_dewp_042.txt.gz
Dewpoint
49 50 50 50 50 51 51 52 52 52 52 52 52 52 53 53 54 48 39 37 44 54 57 48 52 46 40 43 48 47 41 34 31 29 28 28 31 32 34 33 34 35 34 36 41
50 50 50 51 51 51 52 52 52 52 52 52 52 52 52 53 48 46 46 54 57 60 43 35 30 48 47 45 46 46 43 41 34 31 29 29 29 31 34 34 34 36 39 38 38
50 50 50 51 52 52 52 52 52 52 52 52 52 52 52 52 42 32 55 56 55 60 40 33 31 30 39 43 43 46 43 45 43 38 33 32 32 33 34 33 34 36 35 36 37
51 51 50 50 50 51 51 51 52 52 52 52 52 52 52 48 -2 32 54 58 61 52 48 30 26 26 26 33 38 38 42 44 42 41 39 37 36 35 34 35 36 36 37 38 38
51 51 51 51 51 51 52 52 52 52 51 51 52 52 47 40 39 22 50 42 28 54 39 31 26 24 21 22 33 35 37 37 36 36 39 39 37 36 35 37 36 35 34 36 37
51 51 51 51 51 52 53 53 53 52 51 51 51 50 43 35 33 32 30 29 26 29 37 30 25 25 23 24 22 28 32 34 34 32 30 29 32 32 32 33 32 32 32 32 33
52 51 51 51 51 52 52 52 52 52 52 52 51 46 41 38 37 31 28 28 29 27 25 27 26 26 27 26 26 26 25 26 26 26 27 30 28 29 30 30 30 33 33 34 35
51 52 51 51 51 52 52 52 52 52 52 53 51 46 38 40 40 40 39 35 32 30 27 24 23 28 26 28 26 27 29 25 26 27 27 28 25 29 33 32 33 32 32 32 35
51 51 51 50 51 51 52 52 52 52 52 51 48 45 39 44 40 39 36 31 27 26 24 21 20 22 26 25 24 25 26 28 29 30 28 27 26 29 32 31 31 32 33 34 34
50 50 51 51 51 52 52 52 51 51 48 47 44 44 41 34 33 34 33 32 28 24 23 21 17 20 21 24 22 23 24 26 28 31 29 27 26 28 28 28 29 29 30 30 31
49 50 51 51 52 52 50 44 33 31 32 30 27 36 36 37 38 34 30 23 29 24 18 19 13 15 16 20 23 25 25 27 29 30 29 28 28 28 29 29 30 30 30 31 33
49 49 50 51 52 51 47 41 34 33 30 31 28 28 28 28 26 26 26 19 21 16 19 16 14 14 17 21 21 21 21 23 23 21 25 28 28 28 28 28 28 29 30 31 34
50 50 50 51 51 45 42 35 35 34 31 28 35 33 26 27 26 26 25 22 15 12 13 21 19 17 15 17 19 19 18 20 22 21 18 17 17 19 21 23 24 26 32 33 33
50 50 50 50 42 43 37 36 36 35 26 27 28 29 30 25 23 26 25 23 15 11 11 10 11 13 18 14 17 17 21 19 19 18 14 16 12 16 17 17 19 22 25 27 31
50 50 50 49 44 41 38 38 37 32 14 21 26 29 23 21 23 28 30 21 17 13 12 11 10 12 12 14 19 16 21 21 21 19 17 16 15 13 20 19 21 22 28 28 27
50 50 50 45 44 44 40 39 36 25 16 20 20 19 20 22 22 28 30 24 22 14 13 12 12 9 7 8 8 11 18 19 19 19 16 16 15 14 14 15 17 28 30 28 29
50 49 48 45 39 41 41 36 23 18 22 16 17 21 21 22 22 27 27 30 27 25 21 15 12 12 11 9 9 9 10 13 13 16 15 17 16 15 21 22 20 20 24 29 31
49 48 46 45 44 42 38 30 18 22 22 27 23 22 20 23 22 26 23 23 26 24 25 23 22 26 25 17 9 7 9 13 10 15 15 17 16 15 18 17 17 18 23 28 29
48 43 44 43 43 40 34 23 23 26 28 27 25 23 24 22 26 26 25 24 25 29 24 25 23 23 20 17 17 16 7 8 12 14 13 17 18 19 17 16 17 17 26 29 40
43 42 42 42 41 39 31 28 28 29 29 29 25 26 24 25 26 26 27 28 29 30 30 26 22 23 21 20 16 20 22 10 12 12 11 15 18 18 19 19 20 22 21 40 54
41 39 41 41 41 35 25 29 28 28 28 30 28 26 24 26 28 27 27 28 34 32 31 26 26 23 27 20 13 24 22 17 13 14 13 12 15 22 20 22 23 25 29 52 54
39 35 39 39 34 33 30 30 32 28 32 32 30 29 30 29 28 28 31 29 36 35 32 34 32 28 22 23 24 28 26 25 13 9 17 14 14 21 21 22 25 31 50 52 54
37 38 41 38 33 30 33 32 31 28 31 34 31 31 32 30 27 30 28 33 35 34 33 33 28 22 21 25 30 28 31 33 31 14 10 13 15 18 21 22 20 37 50 52 53
40 35 35 37 35 31 31 33 30 32 30 28 28 30 30 28 29 26 26 30 30 34 39 39 32 27 21 24 28 28 30 30 31 28 14 12 14 17 18 17 18 41 49 52 53
38 35 34 29 32 33 34 33 31 32 30 30 29 30 28 27 28 27 30 30 30 32 38 38 31 30 30 31 30 30 30 28 28 29 29 26 28 24 22 16 18 42 49 51 52
35 35 38 36 35 33 33 33 36 34 33 32 30 30 30 30 32 32 31 30 29 31 33 36 31 32 31 29 30 30 31 30 27 27 28 29 30 31 30 41 42 47 49 50 52
39 40 40 36 33 33 34 35 36 35 36 34 32 31 32 34 35 34 33 32 30 29 29 34 34 30 25 32 31 28 28 28 25 28 30 28 29 31 42 46 47 47 49 50 51

GFSSW_sfc_dewp_048.txt.gz
Dewpoint
49 50 51 51 51 51 51 51 52 52 52 52 52 52 52 52 53 47 35 27 44 54 57 34 52 51 46 47 48 44 35 33 34 30 29 31 35 32 33 35 35 37 38 39 43
50 50 50 51 51 51 51 51 52 52 52 52 52 51 51 52 47 43 40 46 51 53 45 31 29 44 38 39 46 44 37 32 35 32 30 35 38 34 33 34 34 36 39 37 40
49 49 50 51 50 51 50 50 51 51 51 52 52 51 51 49 28 8 55 53 53 56 49 47 39 42 34 42 43 46 41 38 35 35 36 37 39 38 36 35 34 37 37 38 41
50 50 51 51 51 51 50 50 51 51 51 51 51 50 49 45 -17 18 47 46 46 42 48 44 33 30 37 43 43 44 45 42 39 39 44 41 42 41 39 38 38 40 39 40 39
50 50 50 51 50 50 51 51 52 52 51 51 50 50 45 37 31 32 44 40 28 33 47 42 31 29 26 30 39 40 41 44 45 44 44 43 43 42 41 41 40 40 40 40 40
50 50 50 50 50 50 51 52 52 52 52 51 51 50 42 32 34 36 35 39 30 27 25 41 35 29 26 24 32 30 37 39 38 37 38 37 37 37 37 38 36 35 35 36 35
49 50 50 50 49 49 51 52 53 53 53 52 51 45 41 36 40 40 40 40 36 36 27 24 38 35 27 25 25 26 24 25 26 27 29 33 32 33 36 35 34 33 33 33 35
50 50 49 49 49 50 51 52 53 53 53 51 51 45 40 42 42 42 40 38 38 39 34 26 27 25 25 26 27 26 24 23 26 26 27 30 28 31 34 34 33 33 33 33 36
49 50 49 50 50 51 51 52 53 52 53 51 46 42 38 43 42 42 40 34 33 33 34 29 26 23 27 24 23 25 22 24 25 28 27 27 27 32 33 31 32 32 33 33 35
49 50 50 50 50 51 52 52 51 50 50 48 46 39 32 24 28 31 34 31 34 31 28 27 21 20 24 23 19 21 23 22 24 28 28 27 27 29 31 31 32 32 32 33 33
49 49 50 50 50 51 49 38 34 32 33 30 28 30 29 32 33 32 31 29 27 30 21 19 17 17 20 22 22 23 22 25 27 28 29 27 27 29 31 31 31 31 31 32 33
48 49 49 50 50 50 42 36 35 35 31 32 32 31 31 32 31 27 29 25 21 18 20 17 14 18 22 22 22 22 21 21 23 26 24 24 22 23 26 29 31 32 32 33 33
49 48 49 49 50 43 40 38 38 35 31 30 30 29 32 30 27 25 26 25 21 18 18 15 17 19 17 19 19 19 19 21 23 24 23 23 22 24 25 25 23 24 27 32 33
49 48 48 48 41 42 39 40 41 36 24 20 25 28 27 25 26 32 34 25 22 19 17 11 12 14 15 15 16 15 21 21 22 22 19 21 17 19 20 21 22 20 19 20 28
48 48 48 47 42 40 38 42 39 29 9 22 23 27 27 24 24 30 35 37 22 14 11 10 11 10 11 13 16 14 19 20 22 20 19 18 16 16 18 17 18 19 18 19 21
49 48 48 44 44 43 43 40 33 21 10 23 27 26 26 26 24 31 33 31 28 21 17 12 15 10 9 12 15 17 16 17 19 20 17 17 16 13 13 11 12 16 18 23 25
49 49 46 44 35 41 40 31 22 17 25 25 25 26 27 24 24 25 27 29 30 17 15 16 15 14 12 11 14 12 11 13 14 15 11 18 16 12 18 20 22 21 22 23 24
49 46 47 45 44 42 32 25 18 24 24 27 26 27 23 24 24 26 26 27 33 34 30 21 20 16 16 13 11 9 8 14 10 14 10 19 16 16 21 18 18 19 22 24 24
46 42 41 43 45 38 29 21 24 27 27 26 27 24 23 24 27 26 25 29 34 35 31 29 24 29 23 19 15 14 7 8 5 11 8 16 18 19 17 16 19 23 23 22 24
40 40 40 42 41 34 28 27 28 30 29 28 26 27 24 24 26 26 26 32 31 32 34 27 19 25 25 23 18 15 14 8 8 4 8 13 15 16 19 18 15 22 23 25 28
38 36 39 40 39 34 24 28 31 31 32 30 29 28 26 25 27 27 26 30 34 32 34 31 25 22 24 20 12 18 16 18 11 11 11 11 14 20 18 22 24 23 23 25 42
36 32 40 38 31 26 25 31 35 32 32 32 34 32 28 28 27 27 27 29 34 34 30 33 30 26 24 24 25 20 21 24 18 14 11 14 12 22 20 20 22 23 26 30 53
37 37 41 34 23 23 30 31 33 32 32 32 30 30 30 29 28 28 29 30 32 33 31 33 27 22 20 26 29 26 27 23 28 29 24 11 10 17 19 21 22 27 31 37 54
38 31 33 33 32 28 32 29 32 33 35 33 31 31 32 29 29 28 28 29 32 33 36 36 30 24 18 20 26 25 26 27 29 26 22 20 19 20 21 22 27 27 32 38 53
34 29 36 26 27 29 33 31 32 29 34 35 32 30 33 31 29 28 29 30 32 34 34 35 30 31 31 30 29 29 28 28 27 27 27 24 23 25 28 28 28 30 33 45 51
30 32 34 30 31 31 31 31 32 31 35 32 33 35 35 32 30 29 30 31 33 33 34 36 30 29 27 27 26 28 29 30 29 28 27 28 29 30 30 29 29 29 34 47 49
38 39 36 30 29 27 27 31 30 32 34 34 34 35 32 32 32 33 34 34 36 36 33 35 32 29 22 25 27 22 27 26 27 28 27 25 28 29 28 29 32 32 39 48 50